When you browse on this site, cookies collect data to enhance your experience and personalize the content and advertising you see.
Visit our Privacy Policy to learn more. By continuing to use the site, you agree to this use of cookies and data.
  • In Hungary
  • List of Countries
  • For 7 days
  • Water Temperature
  • Weather Map
  • News
  • Weather Widgets
  • user-avatar
    Login

    Hourly Weather Blohino

    Today, 23 October, Wednesday

    Time Temperature Precipitation Wind Pressure Humidity
    00:00 +10°C° 0 mm 1 mps 750 mmHg 74%
    01:00 +9°C° 0 mm 2 mps 750 mmHg 77%
    02:00 +8°C° 0 mm 2 mps 750 mmHg 81%
    03:00 +8°C° 0 mm 3 mps 750 mmHg 88%
    04:00 +7°C° 0 mm 3 mps 749 mmHg 90%
    05:00 +7°C° 0 mm 3 mps 749 mmHg 91%
    06:00 +7°C° 0 mm 3 mps 749 mmHg 92%
    07:00 +7°C° 0 mm 4 mps 748 mmHg 89%
    08:00 +8°C° 0 mm 5 mps 748 mmHg 86%
    09:00 +9°C° 0 mm 5 mps 748 mmHg 84%
    10:00 +10°C° 0 mm 5 mps 748 mmHg 82%
    11:00 +12°C° 0 mm 5 mps 747 mmHg 80%
    12:00 +13°C° 0 mm 5 mps 747 mmHg 79%
    13:00 +12°C° 0.7 mm 5 mps 747 mmHg 83%
    14:00 +12°C° 0.7 mm 5 mps 747 mmHg 88%
    15:00 +12°C° 0 mm 5 mps 746 mmHg 91%
    16:00 +12°C° 0.1 mm 5 mps 746 mmHg 92%
    17:00 +12°C° 0.1 mm 4 mps 746 mmHg 92%
    18:00 +12°C° 0.1 mm 4 mps 746 mmHg 93%
    19:00 +12°C° 0.1 mm 4 mps 746 mmHg 93%
    20:00 +12°C° 0.1 mm 4 mps 746 mmHg 92%
    21:00 +12°C° 0.1 mm 3 mps 747 mmHg 92%
    22:00 +11°C° 0.1 mm 3 mps 747 mmHg 92%
    23:00 +12°C° 0.1 mm 2 mps 747 mmHg 91%

    Tomorrow, 24 October, Thursday

    Time Temperature Precipitation Wind Pressure Humidity
    00:00 +12°C° 0.1 mm 2 mps 747 mmHg 91%
    01:00 +10°C° 0 mm 2 mps 747 mmHg 89%
    02:00 +9°C° 0 mm 2 mps 747 mmHg 88%
    03:00 +9°C° 0 mm 2 mps 748 mmHg 86%
    04:00 +9°C° 0 mm 2 mps 748 mmHg 86%
    05:00 +8°C° 0 mm 2 mps 748 mmHg 86%
    06:00 +9°C° 0 mm 1 mps 748 mmHg 85%
    07:00 +10°C° 0 mm 1 mps 748 mmHg 84%
    08:00 +10°C° 0 mm 1 mps 749 mmHg 82%
    09:00 +11°C° 0 mm 1 mps 749 mmHg 81%
    10:00 +12°C° 0 mm 1 mps 749 mmHg 76%
    11:00 +13°C° 0 mm 1 mps 749 mmHg 71%
    12:00 +14°C° 0 mm 1 mps 749 mmHg 66%
    13:00 +14°C° 0 mm 1 mps 749 mmHg 65%
    14:00 +13°C° 0 mm 0 mps 749 mmHg 63%
    15:00 +13°C° 0 mm 0 mps 749 mmHg 61%
    16:00 +12°C° 0 mm 0 mps 749 mmHg 66%
    17:00 +12°C° 0 mm 0 mps 749 mmHg 71%
    18:00 +11°C° 0 mm 0 mps 750 mmHg 75%
    19:00 +11°C° 0 mm 0 mps 750 mmHg 76%
    20:00 +12°C° 0 mm 1 mps 750 mmHg 76%
    21:00 +12°C° 0 mm 1 mps 750 mmHg 77%
    22:00 +12°C° 0 mm 1 mps 750 mmHg 78%
    23:00 +11°C° 0 mm 1 mps 750 mmHg 79%

    Day after tomorrow, 25 October, Friday

    Time Temperature Precipitation Wind Pressure Humidity
    00:00 +11°C° 0 mm 1 mps 750 mmHg 80%
    01:00 +11°C° 0 mm 1 mps 750 mmHg 80%
    02:00 +11°C° 0 mm 1 mps 750 mmHg 81%
    03:00 +11°C° 0 mm 1 mps 750 mmHg 81%
    04:00 +11°C° 0 mm 1 mps 750 mmHg 82%
    05:00 +11°C° 0 mm 1 mps 750 mmHg 82%
    06:00 +11°C° 0 mm 1 mps 750 mmHg 83%
    07:00 +11°C° 0 mm 1 mps 750 mmHg 81%
    08:00 +11°C° 0 mm 1 mps 750 mmHg 80%
    09:00 +12°C° 0 mm 1 mps 750 mmHg 78%
    10:00 +12°C° 0 mm 1 mps 750 mmHg 76%
    11:00 +13°C° 0 mm 1 mps 750 mmHg 75%
    12:00 +13°C° 0 mm 1 mps 750 mmHg 73%
    13:00 +13°C° 0 mm 1 mps 750 mmHg 73%
    14:00 +13°C° 0 mm 1 mps 750 mmHg 73%
    15:00 +14°C° 0 mm 1 mps 750 mmHg 74%
    16:00 +13°C° 0 mm 1 mps 750 mmHg 78%
    17:00 +12°C° 0 mm 1 mps 750 mmHg 83%
    18:00 +12°C° 0 mm 1 mps 750 mmHg 87%
    19:00 +11°C° 0.1 mm 1 mps 750 mmHg 89%
    20:00 +10°C° 0.1 mm 2 mps 750 mmHg 92%
    21:00 +9°C° 0.1 mm 2 mps 750 mmHg 94%
    22:00 +9°C° 0.3 mm 2 mps 750 mmHg 95%
    23:00 +10°C° 0.3 mm 1 mps 750 mmHg 96%

    26 October, Saturday

    Time Temperature Precipitation Wind Pressure Humidity
    00:00 +10°C° 0.3 mm 1 mps 750 mmHg 97%
    01:00 +9°C° 0.2 mm 2 mps 750 mmHg 97%
    02:00 +9°C° 0.2 mm 2 mps 750 mmHg 96%
    03:00 +10°C° 0.2 mm 2 mps 749 mmHg 96%
    04:00 +10°C° 0 mm 2 mps 749 mmHg 96%
    05:00 +9°C° 0 mm 2 mps 749 mmHg 95%
    06:00 +9°C° 0 mm 2 mps 749 mmHg 94%
    07:00 +10°C° 0 mm 2 mps 749 mmHg 92%
    08:00 +10°C° 0 mm 3 mps 749 mmHg 89%
    09:00 +11°C° 0 mm 3 mps 749 mmHg 87%
    10:00 +12°C° 0 mm 4 mps 748 mmHg 81%
    11:00 +13°C° 0 mm 4 mps 748 mmHg 76%
    12:00 +14°C° 0 mm 5 mps 748 mmHg 71%
    13:00 +14°C° 0 mm 5 mps 747 mmHg 70%
    14:00 +14°C° 0 mm 5 mps 747 mmHg 70%
    15:00 +14°C° 0 mm 5 mps 747 mmHg 69%
    16:00 +13°C° 0 mm 5 mps 746 mmHg 73%
    17:00 +13°C° 0 mm 5 mps 746 mmHg 76%
    18:00 +12°C° 0 mm 4 mps 746 mmHg 80%
    19:00 +12°C° 0 mm 5 mps 745 mmHg 80%
    20:00 +12°C° 0 mm 5 mps 745 mmHg 80%
    21:00 +10°C° 0 mm 5 mps 745 mmHg 80%
    22:00 +10°C° 0 mm 5 mps 744 mmHg 80%
    23:00 +10°C° 0 mm 6 mps 743 mmHg 81%

    27 October, Sunday

    Time Temperature Precipitation Wind Pressure Humidity
    00:00 +10°C° 0 mm 6 mps 743 mmHg 81%
    01:00 +10°C° 0 mm 6 mps 742 mmHg 82%
    02:00 +10°C° 0 mm 6 mps 742 mmHg 82%
    03:00 +10°C° 0 mm 6 mps 741 mmHg 82%
    04:00 +10°C° 0 mm 7 mps 741 mmHg 81%
    05:00 +10°C° 0 mm 7 mps 741 mmHg 79%
    06:00 +10°C° 0 mm 7 mps 740 mmHg 78%
    07:00 +10°C° 0.1 mm 7 mps 740 mmHg 78%
    08:00 +9°C° 0.1 mm 6 mps 740 mmHg 78%
    09:00 +9°C° 0.1 mm 6 mps 740 mmHg 78%
    10:00 +10°C° 0 mm 6 mps 740 mmHg 78%
    11:00 +10°C° 0 mm 6 mps 740 mmHg 78%
    12:00 +10°C° 0 mm 6 mps 740 mmHg 78%
    13:00 +11°C° 0 mm 6 mps 739 mmHg 78%
    14:00 +11°C° 0 mm 6 mps 739 mmHg 79%
    15:00 +11°C° 0 mm 6 mps 739 mmHg 79%
    16:00 +12°C° 0 mm 5 mps 739 mmHg 80%
    17:00 +12°C° 0 mm 5 mps 739 mmHg 82%
    18:00 +12°C° 0 mm 5 mps 739 mmHg 83%
    19:00 +12°C° 0 mm 5 mps 739 mmHg 82%
    20:00 +10°C° 0 mm 5 mps 739 mmHg 82%
    21:00 +10°C° 0 mm 5 mps 739 mmHg 81%
    22:00 +10°C° 0 mm 5 mps 739 mmHg 82%
    23:00 +9°C° 0 mm 5 mps 738 mmHg 84%

    28 October, Monday

    Time Temperature Precipitation Wind Pressure Humidity
    00:00 +9°C° 0 mm 5 mps 738 mmHg 86%
    01:00 +9°C° 0 mm 5 mps 738 mmHg 85%
    02:00 +9°C° 0 mm 5 mps 738 mmHg 84%
    03:00 +10°C° 0 mm 5 mps 738 mmHg 83%
    04:00 +9°C° 0 mm 5 mps 737 mmHg 85%
    05:00 +9°C° 0 mm 6 mps 737 mmHg 87%
    06:00 +8°C° 0 mm 6 mps 737 mmHg 89%
    07:00 +9°C° 0 mm 6 mps 737 mmHg 87%
    08:00 +9°C° 0 mm 7 mps 737 mmHg 85%
    09:00 +10°C° 0 mm 7 mps 737 mmHg 83%
    10:00 +11°C° 0 mm 7 mps 736 mmHg 78%
    11:00 +12°C° 0 mm 7 mps 736 mmHg 74%
    12:00 +14°C° 0 mm 7 mps 736 mmHg 69%
    13:00 +14°C° 0 mm 7 mps 736 mmHg 69%
    14:00 +15°C° 0 mm 7 mps 736 mmHg 68%
    15:00 +15°C° 0 mm 7 mps 735 mmHg 68%
    16:00 +14°C° 0 mm 7 mps 735 mmHg 70%
    17:00 +14°C° 0 mm 7 mps 735 mmHg 72%
    18:00 +12°C° 0 mm 7 mps 735 mmHg 75%
    19:00 +12°C° 0 mm 7 mps 736 mmHg 73%
    20:00 +12°C° 0 mm 7 mps 736 mmHg 71%
    21:00 +11°C° 0 mm 7 mps 737 mmHg 70%
    22:00 +10°C° 0 mm 7 mps 737 mmHg 68%
    23:00 +9°C° 0 mm 6 mps 738 mmHg 66%

    29 October, Tuesday

    Time Temperature Precipitation Wind Pressure Humidity
    00:00 +7°C° 0 mm 6 mps 738 mmHg 64%
    01:00 +7°C° 0 mm 6 mps 739 mmHg 66%
    02:00 +5°C° 0 mm 6 mps 740 mmHg 67%
    03:00 +4°C° 0 mm 6 mps 740 mmHg 68%
    04:00 +5°C° 0 mm 5 mps 741 mmHg 70%
    05:00 +3°C° 0 mm 5 mps 742 mmHg 72%
    06:00 +2°C° 0 mm 5 mps 743 mmHg 74%
    07:00 +2°C° 0 mm 5 mps 743 mmHg 71%
    08:00 +1°C° 0 mm 4 mps 744 mmHg 69%
    09:00 0°C° 0 mm 4 mps 745 mmHg 66%
    10:00 +1°C° 0 mm 4 mps 746 mmHg 64%
    11:00 +2°C° 0 mm 3 mps 746 mmHg 62%
    12:00 +3°C° 0 mm 3 mps 747 mmHg 59%
    13:00 +3°C° 0 mm 3 mps 747 mmHg 59%
    14:00 +3°C° 0 mm 3 mps 747 mmHg 59%
    15:00 +3°C° 0 mm 3 mps 748 mmHg 59%
    16:00 +2°C° 0 mm 3 mps 748 mmHg 62%
    17:00 +2°C° 0 mm 2 mps 749 mmHg 65%
    18:00 +1°C° 0 mm 2 mps 749 mmHg 67%
    19:00 +1°C° 0 mm 2 mps 749 mmHg 69%
    20:00 -1°C° 0 mm 2 mps 750 mmHg 70%
    21:00 -1°C° 0 mm 2 mps 750 mmHg 71%
    22:00 -1°C° 0 mm 2 mps 750 mmHg 71%
    23:00 -1°C° 0 mm 2 mps 750 mmHg 72%
    Show more